Cairns, Australia

5:47 PM AEST on April 28, 2017 (GMT +1000)
Cairns International

Weather History for YBCS - November, 2011

Change the Weather History Date:

Wednesday, November 16, 2011

  Actual Average Record
Temperature  
Mean Temperature 79 °F -  
Max Temperature 84 °F 88 °F 95 °F (2006)
Min Temperature 74 °F 73 °F 66 °F (1999)
Cooling Degree Days 14    
Growing Degree Days 29 (Base 50)    
Moisture  
Dew Point 66 °F    
Average Humidity 64    
Maximum Humidity 78    
Minimum Humidity 46    
Precipitation  
Precipitation 0.00 in 0.19 in - ()
Sea Level Pressure  
Sea Level Pressure 29.91 in    
Wind  
Wind Speed 10 mph ()    
Max Wind Speed 16 mph    
Max Gust Speed -    
Visibility 7.8 miles    
Events Rain    
Averages and records for this station are not official NWS values.
T = Trace of Precipitation, MM = Missing Value Source: Averaged Metar Reports

Daily Weather History Graph

Daily Weather History Graph

Search for Another Location

Airport or City:

Trip Planner

Search our weather history database for the weather conditions in past years. The results will help you decide how hot, cold, wet, or windy it might be!

Date:

Astronomy

Nov. 16, 2011 Rise Set
Actual Time 5:34 AM AEST 6:28 PM AEST
Civil Twilight 5:11 AM AEST 6:52 PM AEST
Nautical Twilight 4:44 AM AEST 7:19 PM AEST
Astronomical Twilight 4:16 AM AEST 7:47 PM AEST
Moon 10:55 PM AEST (11/16) 9:43 AM AEST (11/16)
Length of Visible Light 13h 40m
Length of Day
12h 54m
Waning Gibbous, 76% of the Moon is Illuminated
Nov 16
Waning Gibbous
Nov 19
Last Quarter
Nov 25
New
Dec 2
First Quarter
Dec 11
Full

Hourly Weather History & Observations

Time (AEST) Temp. Heat Index Dew Point Humidity Pressure Visibility Wind Dir Wind Speed Gust Speed Precip Events Conditions
12:00 AM 76 °F - 67 °F 68% 29.93 in 19 mi South 6.9 mph - -   Partly Cloudy
12:00 AM 75.2 °F - 68.0 °F 78% 29.92 in 6.2 mi South 6.9 mph - N/A   Partly Cloudy
12:30 AM 75.2 °F - 68.0 °F 78% 29.92 in 6.2 mi South 8.1 mph - N/A   Partly Cloudy
1:00 AM 75 °F - 68 °F 72% 29.92 in - SSE 6.9 mph - -  
1:00 AM 75.2 °F - 68.0 °F 78% 29.92 in 6.2 mi SSE 6.9 mph - N/A   Partly Cloudy
1:30 AM 75.2 °F - 68.0 °F 78% 29.89 in 6.2 mi South 8.1 mph - N/A   Partly Cloudy
2:00 AM 75.2 °F - 68.0 °F 78% 29.89 in 6.2 mi South 9.2 mph - N/A   Scattered Clouds
2:30 AM 75.2 °F - 68.0 °F 78% 29.89 in 6.2 mi South 8.1 mph - N/A   Scattered Clouds
3:00 AM 75 °F - 67 °F 69% 29.89 in 19 mi South 8.1 mph - -   Partly Cloudy
3:00 AM 75.2 °F - 66.2 °F 73% 29.89 in 6.2 mi South 8.1 mph - N/A   Scattered Clouds
3:30 AM 75.2 °F - 66.2 °F 73% 29.89 in 6.2 mi South 8.1 mph - N/A   Partly Cloudy
4:00 AM 75 °F - 67 °F 68% 29.90 in - South 6.9 mph - -  
4:00 AM 75.2 °F - 66.2 °F 73% 29.89 in 6.2 mi South 6.9 mph - N/A   Partly Cloudy
4:30 AM 75.2 °F - 66.2 °F 73% 29.89 in 6.2 mi South 10.4 mph - N/A   Partly Cloudy
5:00 AM 75.2 °F - 66.2 °F 73% 29.89 in 6.2 mi South 9.2 mph - N/A   Partly Cloudy
5:30 AM 75.2 °F - 66.2 °F 73% 29.89 in 6.2 mi South 11.5 mph - N/A   Partly Cloudy
6:00 AM 75 °F - 66 °F 67% 29.91 in 19 mi South 10.4 mph - -   Partly Cloudy
6:00 AM 75.2 °F - 66.2 °F 73% 29.92 in 6.2 mi South 10.4 mph - N/A   Partly Cloudy
6:30 AM 75.2 °F - 66.2 °F 73% 29.92 in 6.2 mi South 8.1 mph - N/A   Partly Cloudy
7:00 AM 77 °F - 66 °F 61% 29.95 in - South 9.2 mph - -  
7:00 AM 77.0 °F - 66.2 °F 69% 29.95 in 6.2 mi South 9.2 mph - N/A   Scattered Clouds
7:30 AM 77.0 °F - 66.2 °F 69% 29.95 in 6.2 mi South 10.4 mph - N/A Rain Light Rain Showers
8:00 AM 80.6 °F 82.7 °F 66.2 °F 61% 29.95 in 6.2 mi South 10.4 mph - N/A   Scattered Clouds
8:30 AM 78.8 °F - 66.2 °F 65% 29.95 in 6.2 mi South 9.2 mph - N/A   Scattered Clouds
9:00 AM 82 °F - 68 °F 54% 29.96 in 19 mi SSE 12.7 mph - -   Partly Cloudy
9:00 AM 82.4 °F 85.4 °F 68.0 °F 62% 29.95 in 6.2 mi SSE 12.7 mph - N/A   Scattered Clouds
9:30 AM 80.6 °F 83.2 °F 68.0 °F 65% 29.95 in 6.2 mi SSE 13.8 mph - N/A   Mostly Cloudy
10:00 AM 81 °F - 68 °F 56% 29.96 in - SE 15.0 mph - -  
10:00 AM 80.6 °F 83.2 °F 68.0 °F 65% 29.95 in 6.2 mi SE 15.0 mph - N/A   Mostly Cloudy
10:30 AM 82.4 °F 83.9 °F 64.4 °F 54% 29.95 in 6.2 mi SE 15.0 mph - N/A   Mostly Cloudy
11:00 AM 82.4 °F 84.6 °F 66.2 °F 58% 29.92 in 6.2 mi SE 15.0 mph - N/A   Mostly Cloudy
11:30 AM 82.4 °F 84.6 °F 66.2 °F 58% 29.92 in 6.2 mi SE 16.1 mph - N/A   Mostly Cloudy
12:00 PM 83 °F - 65 °F 46% 29.92 in 19 mi SE 16.1 mph - -   Partly Cloudy
12:00 PM 82.4 °F 84.6 °F 66.2 °F 58% 29.92 in 6.2 mi SE 16.1 mph - N/A   Mostly Cloudy
12:30 PM 82.4 °F 84.6 °F 66.2 °F 58% 29.89 in 6.2 mi SE 16.1 mph - N/A   Mostly Cloudy
1:00 PM 83 °F - 66 °F 47% 29.90 in - SSE 15.0 mph - -  
1:00 PM 82.4 °F 84.6 °F 66.2 °F 58% 29.89 in 6.2 mi SSE 15.0 mph - N/A   Mostly Cloudy
1:30 PM 82.4 °F 84.6 °F 66.2 °F 58% 29.86 in 6.2 mi SSE 13.8 mph - N/A   Mostly Cloudy
2:00 PM 84.2 °F 86.6 °F 66.2 °F 55% 29.86 in 6.2 mi ESE 15.0 mph - N/A   Mostly Cloudy
2:30 PM 84.2 °F 86.6 °F 66.2 °F 55% 29.86 in 6.2 mi SE 15.0 mph - N/A   Mostly Cloudy
3:00 PM 83 °F - 65 °F 46% 29.86 in 19 mi SE 15.0 mph - -   Partly Cloudy
3:00 PM 82.4 °F 84.6 °F 66.2 °F 58% 29.86 in 6.2 mi SE 15.0 mph - N/A   Mostly Cloudy
3:30 PM 84.2 °F 86.6 °F 66.2 °F 55% 29.86 in 6.2 mi SE 15.0 mph - N/A   Mostly Cloudy
4:00 PM 83 °F - 65 °F 46% 29.86 in - SE 15.0 mph - -  
4:00 PM 82.4 °F 84.6 °F 66.2 °F 58% 29.86 in 6.2 mi SE 15.0 mph - N/A   Scattered Clouds
4:30 PM 84.2 °F 86.6 °F 66.2 °F 55% 29.86 in 6.2 mi SE 15.0 mph - N/A   Scattered Clouds
5:00 PM 82.4 °F 83.9 °F 64.4 °F 54% 29.86 in 6.2 mi SE 16.1 mph - N/A   Scattered Clouds
5:30 PM 80.6 °F 82.3 °F 64.4 °F 58% 29.86 in 6.2 mi SE 15.0 mph - N/A   Scattered Clouds
6:00 PM 80 °F - 65 °F 51% 29.88 in - SE 12.7 mph - -  
6:00 PM 78.8 °F - 64.4 °F 61% 29.86 in 6.2 mi SE 12.7 mph - N/A   Scattered Clouds
6:30 PM 78.8 °F - 64.4 °F 61% 29.89 in 6.2 mi SE 13.8 mph - N/A   Scattered Clouds
7:00 PM 79 °F - 65 °F 52% 29.90 in - SSE 10.4 mph - -  
7:00 PM 78.8 °F - 64.4 °F 61% 29.89 in 6.2 mi SSE 10.4 mph - N/A   Scattered Clouds
7:30 PM 78.8 °F - 66.2 °F 65% 29.89 in 6.2 mi SSE 10.4 mph - N/A   Scattered Clouds
8:00 PM 77.0 °F - 66.2 °F 69% 29.89 in 6.2 mi South 9.2 mph - N/A   Partly Cloudy
8:30 PM 77.0 °F - 64.4 °F 65% 29.92 in 6.2 mi South 8.1 mph - N/A   Partly Cloudy
9:00 PM 77 °F - 66 °F 60% 29.92 in 19 mi South 8.1 mph - -   Partly Cloudy
9:00 PM 77.0 °F - 66.2 °F 69% 29.92 in 6.2 mi South 8.1 mph - N/A   Scattered Clouds
9:30 PM 77.0 °F - 66.2 °F 69% 29.92 in 6.2 mi South 9.2 mph - N/A   Mostly Cloudy
10:00 PM 77 °F - 66 °F 62% 29.94 in - SSE 8.1 mph - -  
10:00 PM 77.0 °F - 66.2 °F 69% 29.92 in 6.2 mi SSE 8.1 mph - N/A   Mostly Cloudy
10:30 PM 77.0 °F - 66.2 °F 69% 29.92 in 6.2 mi South 9.2 mph - N/A   Mostly Cloudy
11:00 PM 77.0 °F - 66.2 °F 69% 29.92 in 6.2 mi South 9.2 mph - N/A   Mostly Cloudy
11:30 PM 77.0 °F - 68.0 °F 74% 29.92 in 6.2 mi South 10.4 mph - N/A   Mostly Cloudy